Find Starlink 33804

NORAD ID: 63511 Int'l Des: 2025-071 Owner: SPXS Country: US Constellation: starlink operational
LEOCIRCULAR

現在のビュー

3D地球を読み込み中...

Starlink 33804について

説明を読み込み中...

次回通過

Passes for default location (London). Set your location on the main map for personalized predictions.

高度履歴

Loading altitude history...

軌道要素

1 63511U 25071U 26145.14082764 .00013813 00000-0 45572-3 0 9993
2 63511 53.1590 144.8631 0001269 114.2255 245.8879 15.31722958 64103
Epoch: May 25, 2026 • Age: 12 hours

現在のステータス

高度 478.2 km
速度 7.63 km/s
衛星直下点 -25.64°S, 128.69°W
打ち上げ日 Apr 7, 2025
運用期間 1.1 years
タイプ internet

技術仕様

分類 Payload
質量 575.00 kg
乾燥質量 530.00 kg
総質量 575.00 kg
長さ 0.30 m
直径 4.10 m
スパン 29.00 m
形状 Box + pan
製造者 SPXS
バスタイプ Starlink V2MO
フェーズステータス In Orbit
所有者/国 SPXS/US

Most Searched